Location: Ermatingen
(47.6706°N, 9.0857°E)
Time: 09:27:33
(UTC+00:00)

Cosmos 494 Rocket - Pass Details

Date: 18 September 2020
Orbit: 741 x 771 km, 74.1° (Epoch: 27 October)

Event Time Altitude Azimuth Distance (km) Brightness Sun altitude
Rises 19:57:05 0° 335° (NNW) 3,244 8.1 -24.4°
Reaches altitude 10° 19:59:28 10° 333° (NNW) 2,317 7.3 -24.7°
Maximum altitude 20:04:41 69° 252° (WSW) 828 4.2 -25.5°
Enters shadow 20:05:37 56° 198° (SSW) 913 4.2 -25.6°
